This demonstration page uses our WeatherBlox Daily Observations layout. Learn more.

Left ArrowRight Arrow

Hourly Observations for August 2, 2021

Temp ( °F °C ) Dew Point ( °F °C ) Humidity (%) Winds ( mph kmh ) Pressure ( in mb ) Visibility ( mi km ) Precip ( " mm )
12:15 am 00:15 Clear 62 16.8 58 14.7 88 88 SSE 5 7 30.20 1023 7 11 N/A
12:35 am 00:35 Clear 62 16.9 59 14.9 88 88 N N/A 30.21 1023 7 11 N/A
12:55 am 00:55 Clear 62 16.8 58 14.4 86 86 N N/A 30.21 1023 7 11 N/A
1:15 am 01:15 Clear 61 16.3 58 14.5 89 89 N N/A 30.21 1023 7 11 N/A
1:35 am 01:35 Clear 61 16.1 57 13.9 87 87 SSE 3 6 30.22 1023 7 11 N/A
1:55 am 01:55 Clear 61 16.3 57 14 86 86 N N/A 30.21 1023 7 11 N/A
2:15 am 02:15 Clear 60 15.8 57 13.7 87 87 N N/A 30.22 1023 7 11 N/A
2:35 am 02:35 Clear with Mist and Fog 59 14.9 57 13.9 94 94 N N/A 30.23 1024 5 8 N/A
2:55 am 02:55 Clear 59 14.8 56 13.6 93 93 N N/A 30.23 1024 7 11 N/A
3:15 am 03:15 Clear 58 14.2 55 12.9 92 92 N N/A 30.23 1024 7 11 N/A
3:35 am 03:35 Clear 57 14 56 13.2 95 95 N N/A 30.22 1024 7 11 N/A
3:55 am 03:55 Clear 57 13.9 56 13.1 95 95 N N/A 30.23 1024 7 11 N/A
4:15 am 04:15 Clear 56 13.5 55 12.6 94 94 N N/A 30.23 1024 7 11 N/A
4:35 am 04:35 Clear with Mist and Fog 56 13.6 55 12.9 96 96 N N/A 30.23 1024 5 8 N/A
4:55 am 04:55 Clear 56 13.2 54 12.3 94 94 N N/A 30.22 1023 7 11 N/A
5:15 am 05:15 Clear with Mist and Fog 55 12.8 54 12.2 96 96 N N/A 30.23 1024 5 8 N/A
5:35 am 05:35 Clear with Mist and Fog 55 12.8 54 12.3 97 97 N N/A 30.23 1024 4 6 N/A
5:55 am 05:55 Clear with Mist and Fog 55 12.9 54 12.1 95 95 N N/A 30.22 1024 5 8 N/A
6:15 am 06:15 Clear with Mist and Fog 55 12.7 54 12.2 97 97 N N/A 30.23 1024 4 6 N/A
6:35 am 06:35 Clear with Mist and Fog 55 12.8 54 12.4 97 97 NW 3 6 30.24 1024 3 5 N/A
6:55 am 06:55 Sunny with Mist and Fog 55 12.5 53 11.8 96 96 W 3 6 30.24 1024 3 5 N/A
7:15 am 07:15 Sunny with Mist and Fog 55 12.5 53 11.9 96 96 N N/A 30.23 1024 3 5 N/A
7:35 am 07:35 Sunny with Mist and Fog 56 13.4 55 12.8 96 96 N N/A 30.22 1023 3 5 N/A
7:55 am 07:55 Sunny with Mist and Fog 58 14.6 57 13.8 95 95 N N/A 30.22 1023 3 5 N/A
8:15 am 08:15 Sunny with Mist and Fog 60 15.6 57 14 90 90 N N/A 30.20 1023 4 6 N/A
8:35 am 08:35 Hazy 64 17.5 58 14.4 82 82 N N/A 30.19 1022 5 8 N/A
8:55 am 08:55 Mostly Cloudy 65 18.2 58 14.6 80 80 N N/A 30.19 1022 7 11 N/A
9:15 am 09:15 Mostly Cloudy 68 20 58 14.2 69 69 N N/A 30.17 1022 7 11 N/A
9:35 am 09:35 Partly Cloudy 69 20.6 59 15 70 70 N N/A 30.16 1021 7 11 N/A
9:55 am 09:55 Partly Cloudy 72 22 59 15.1 65 65 SSW 6 9 30.14 1021 7 11 N/A
10:15 am 10:15 Sunny 73 23 57 13.8 56 56 SSW 6 9 30.13 1020 10 16 N/A
10:35 am 10:35 Sunny 74 23.4 57 13.8 55 55 SSE 6 9 30.12 1020 10 16 N/A
10:55 am 10:55 Sunny 76 24.4 57 14.1 53 53 S 6 9 30.11 1020 10 16 N/A
11:15 am 11:15 Sunny 77 24.8 57 14.1 51 51 S 6 9 30.10 1019 7 11 N/A
11:35 am 11:35 Sunny 78 25.3 57 13.8 49 49 SSW 7 11 30.10 1019 10 16 N/A
11:55 am 11:55 Sunny 78 25.5 57 13.7 48 48 S 9 15 30.09 1019 10 16 N/A
12:15 pm 12:15 Sunny 78 25.8 58 14.3 49 49 S 8 13 30.07 1018 10 16 N/A
12:35 pm 12:35 Sunny 79 26 57 14.1 48 48 S 8 13 30.07 1018 10 16 N/A
12:55 pm 12:55 Sunny 80 26.8 57 13.7 45 45 SSE 8 13 30.05 1018 10 16 N/A
1:15 pm 13:15 Sunny 80 26.9 57 13.7 44 44 S 9 15 30.04 1017 10 16 N/A
1:35 pm 13:35 Sunny 80 26.5 58 14.4 47 47 SSE 9 15 30.05 1017 10 16 N/A
1:55 pm 13:55 Sunny 81 27.2 58 14.5 46 46 SSE 13 20 30.03 1017 10 16 N/A
2:15 pm 14:15 Sunny 81 27.2 58 14.2 45 45 SE 9 15 30.03 1017 10 16 N/A
2:35 pm 14:35 Sunny 82 27.6 58 14.6 45 45 SSE 12 19 30.03 1017 10 16 N/A
2:55 pm 14:55 Sunny 81 27.4 58 14.7 46 46 SSE 12 19 30.02 1017 10 16 N/A
3:15 pm 15:15 Sunny 81 27.2 59 15.1 48 48 SSE 9 15 30.02 1017 10 16 N/A
3:35 pm 15:35 Sunny 82 27.9 59 15.1 46 46 SSE 10 17 30.01 1016 10 16 N/A
3:55 pm 15:55 Sunny 83 28.2 60 15.3 45 45 S 9 15 29.99 1016 10 16 N/A
4:15 pm 16:15 Sunny 83 28.3 59 14.9 44 44 SSE 13 20 29.98 1015 10 16 N/A
4:35 pm 16:35 Sunny 83 28.2 59 15 45 45 SSE 10 17 29.98 1015 10 16 N/A
4:55 pm 16:55 Sunny 83 28.1 59 14.8 44 44 SSE 10 17 29.97 1015 10 16 N/A
5:15 pm 17:15 Sunny 83 28.1 58 14.6 44 44 SE 12 19 29.97 1015 10 16 N/A
5:35 pm 17:35 Sunny 83 28.1 58 14.6 44 44 SE 14 22 29.97 1015 10 16 N/A
5:55 pm 17:55 Sunny 82 27.5 59 14.8 46 46 SE 13 20 29.97 1015 10 16 N/A
6:15 pm 18:15 Sunny 82 27.6 59 15.1 46 46 SE 14 22 29.96 1014 10 16 N/A
6:35 pm 18:35 Sunny 81 27 59 15 48 48 SE 13 20 29.96 1015 10 16 N/A
6:55 pm 18:55 Sunny 80 26.7 61 15.9 52 52 SE 9 15 29.97 1015 10 16 N/A
7:15 pm 19:15 Sunny 78 25.8 61 16 55 55 ESE 13 20 29.97 1015 10 16 N/A
7:35 pm 19:35 Sunny 78 25.3 61 15.9 56 56 ESE 10 17 29.98 1015 10 16 N/A
7:55 pm 19:55 Sunny 76 24.6 60 15.6 57 57 SE 12 19 29.98 1015 10 16 N/A
8:15 pm 20:15 Sunny 75 24 59 15.2 58 58 SE 10 17 29.99 1015 10 16 N/A
8:35 pm 20:35 Sunny 74 23.5 59 14.8 58 58 SE 9 15 29.99 1016 10 16 N/A
8:55 pm 20:55 Clear 73 22.6 59 15 62 62 SE 10 17 30.00 1016 10 16 N/A
9:15 pm 21:15 Clear 72 22 60 15.3 66 66 SE 7 11 30.01 1016 10 16 N/A
9:35 pm 21:35 Clear 71 21.6 60 15.3 68 68 SE 10 17 30.03 1017 10 16 N/A
9:55 pm 21:55 Clear 71 21.5 59 15 67 67 SE 9 15 30.03 1017 10 16 N/A
10:15 pm 22:15 Mostly Cloudy 71 21.5 58 14.7 65 65 SE 12 19 30.04 1017 10 16 N/A
10:35 pm 22:35 Cloudy 71 21.5 59 14.8 66 66 SE 10 17 30.05 1018 10 16 N/A
10:55 pm 22:55 Cloudy 70 21.3 58 14.4 65 65 SE 10 17 30.05 1018 10 16 N/A
11:15 pm 23:15 Mostly Cloudy 70 21 57 14.1 65 65 SSE 10 17 30.05 1018 10 16 N/A
11:35 pm 23:35 Mostly Cloudy 69 20.5 57 14 66 66 SSE 10 17 30.06 1018 10 16 N/A
11:55 pm 23:55 Partly Cloudy 69 20.3 57 14 67 67 SE 8 13 30.06 1018 10 16 N/A

Powered by AerisWeather